FW2573 Weather Reports


time (UTC)temp
F
wind
direction
speed
knots
gust
knots
rain 1hr
in
rain 24hr
in
rain mn
in
humidity
%
barometer
mb
20260906083047 62 217 0.0 0.0 0.00 0.01 0.00 67 1012.3
20260906081546 62 217 0.0 0.0 0.00 0.01 0.00 67 1012.1
20260906080053 62 217 0.0 0.0 0.00 0.01 0.00 67 1012.2
20260906074549 62 217 0.0 0.0 0.00 0.01 0.00 66 1012.4
20260906073043 62 217 0.0 0.0 0.00 0.01 0.00 66 1012.5
20260906071542 63 217 0.0 0.0 0.00 0.01 0.00 65 1012.3
20260906070041 63 217 0.0 0.0 0.00 0.01 0.00 65 1012.2
20260906064538 63 217 0.0 0.0 0.00 0.01 0.00 65 1012.7
20260906063043 63 217 0.0 0.0 0.00 0.01 0.00 64 1013.0
20260906061535 63 217 0.0 0.0 0.00 0.01 0.00 63 1013.1
20260906060035 63 217 0.0 0.0 0.00 0.01 0.00 63 1013.4
20260906054549 64 217 0.0 0.0 0.00 0.01 0.00 63 1013.5
20260906053030 64 217 0.0 0.0 0.00 0.01 0.00 62 1013.3
20260906051534 64 217 0.0 0.0 0.00 0.01 0.00 62 1013.4
20260906050031 65 217 0.0 0.0 0.00 0.01 0.00 63 1013.5
20260906044525 65 217 0.0 0.0 0.00 0.01 0.00 63 1013.7
20260906043024 65 217 0.0 0.0 0.00 0.01 0.00 62 1013.8
20260906041524 65 217 0.0 0.0 0.00 0.01 0.00 62 1013.7
20260906040020 65 217 0.0 0.0 0.00 0.01 0.01 63 1013.7
20260906034522 66 217 0.0 0.0 0.00 0.01 0.01 63 1013.7
20260906033019 66 217 0.0 0.0 0.00 0.01 0.01 63 1013.5
20260906031552 66 217 0.0 0.0 0.00 0.01 0.01 64 1013.5
20260906030018 66 217 0.0 0.0 0.00 0.01 0.01 64 1013.8
20260906024535 66 217 0.0 0.0 0.00 0.01 0.01 65 1013.6
20260906023020 67 217 0.0 0.0 0.00 0.01 0.01 66 1013.5
20260906021516 67 217 0.0 0.0 0.00 0.01 0.01 67 1013.2
20260906020015 67 217 0.0 0.0 0.00 0.01 0.01 67 1013.3
20260906014519 68 217 0.0 0.0 0.00 0.01 0.01 66 1013.2
20260906013014 68 217 0.0 0.0 0.00 0.01 0.01 66 1013.0
20260906011514 68 217 0.0 0.0 0.00 0.01 0.01 65 1012.8
20260906010033 69 217 0.0 1.7 0.00 0.01 0.01 65 1012.7
20260906004512 69 217 0.0 0.0 0.00 0.01 0.01 64 1012.5
20260906003012 70 217 0.0 0.0 0.00 0.01 0.01 63 1012.2
20260906001511 71 217 0.0 0.0 0.00 0.01 0.01 61 1012.1
20260906000018 72 217 0.0 0.0 0.00 0.01 0.01 59 1012.0
20260905234510 74 217 0.0 0.0 0.00 0.01 0.01 56 1012.0
20260905233010 75 217 0.0 0.0 0.00 0.01 0.01 54 1012.1
20260905231510 77 217 0.0 0.0 0.00 0.01 0.01 53 1012.0
20260905230022 78 217 0.0 0.0 0.00 0.01 0.01 50 1011.9
20260905224516 80 218 0.0 1.7 0.00 0.01 0.01 49 1012.2
20260905223014 81 218 0.0 1.7 0.00 0.01 0.01 46 1012.2
20260905221508 82 221 0.9 3.5 0.00 0.01 0.01 44 1012.1
20260905220008 83 232 1.7 6.1 0.00 0.01 0.01 42 1012.0
20260905214507 83 291 0.9 4.3 0.00 0.01 0.01 42 1012.0
20260905213006 83 321 2.6 6.1 0.00 0.01 0.01 42 1011.8
20260905211515 84 261 2.6 6.1 0.00 0.01 0.01 39 1012.1
20260905210010 84 242 1.7 5.2 0.00 0.01 0.01 40 1012.0
20260905204505 84 215 1.7 7.0 0.00 0.01 0.01 42 1011.9
20260905203004 83 248 1.7 6.1 0.00 0.01 0.01 45 1012.0
20260905201503 82 316 1.7 5.2 0.00 0.01 0.01 47 1012.0
20260905200002 79 221 1.7 3.5 0.00 0.01 0.01 47 1012.2
20260905194501 77 259 0.9 2.6 0.00 0.01 0.01 53 1012.1
20260905193101 74 264 0.9 2.6 0.00 0.01 0.01 57 1012.0
20260905191604 73 240 0.9 4.3 0.00 0.01 0.01 58 1011.8
20260905191502 73 235 1.7 4.3 0.00 0.01 0.01 57 1011.9
20260905190100 73 243 0.9 4.3 0.00 0.01 0.01 60 1011.8
20260905184559 72 239 0.9 3.5 0.01 0.01 0.01 62 1011.9
20260905183057 71 260 1.7 5.2 0.01 0.01 0.01 63 1012.3
20260905181554 69 252 1.7 6.1 0.01 0.01 0.01 64 1012.8
20260905180101 70 254 1.7 6.1 0.01 0.01 0.01 63 1012.9
20260905174554 72 239 0.0 1.7 0.00 0.00 0.00 60 1013.2
20260905173100 73 311 0.9 3.5 0.00 0.00 0.00 55 1014.3
20260905171549 74 256 0.9 4.3 0.00 0.00 0.00 53 1014.6
20260905170049 77 250 0.0 3.5 0.00 0.00 0.00 47 1014.9
20260905164547 80 319 2.6 7.0 0.00 0.00 0.00 49 1015.1
20260905163047 82 230 0.9 8.7 0.00 0.00 0.00 53 1014.7
20260905161546 84 312 0.9 7.8 0.00 0.00 0.00 49 1014.3
20260905160045 84 296 0.9 7.8 0.00 0.00 0.00 52 1014.2
20260905154540 82 227 4.3 9.6 0.00 0.00 0.00 52 1014.5
20260905153040 82 237 0.9 8.7 0.00 0.00 0.00 54 1014.5
20260905151547 82 237 2.6 9.6 0.00 0.00 0.00 51 1014.2
20260905150037 82 235 2.6 7.0 0.00 0.00 0.00 51 1014.0
20260905144535 82 186 1.7 6.1 0.00 0.00 0.00 53 1014.1
20260905143034 81 284 1.7 3.5 0.00 0.00 0.00 54 1014.2
20260905141530 79 256 1.7 7.0 0.00 0.00 0.00 57 1014.2
20260905140023 77 229 0.9 3.5 0.00 0.00 0.00 59 1014.0
20260905134518 75 255 0.9 5.2 0.00 0.00 0.00 65 1014.3
20260905133014 72 239 0.9 3.5 0.00 0.00 0.00 69 1014.4
20260905131515 70 221 0.9 2.6 0.00 0.00 0.00 70 1014.6
20260905130007 69 273 0.0 0.9 0.00 0.00 0.00 70 1014.7
20260905124509 68 273 0.0 0.0 0.00 0.00 0.00 70 1014.7
20260905123101 66 273 0.0 0.0 0.00 0.00 0.00 70 1014.7
20260905121559 65 273 0.0 0.0 0.00 0.00 0.00 70 1014.6
20260905120059 64 273 0.0 0.0 0.00 0.00 0.00 70 1014.6
20260905114558 64 273 0.0 0.0 0.00 0.00 0.00 70 1014.6
20260905113057 63 275 0.0 0.0 0.00 0.00 0.00 70 1014.4
20260905111556 62 275 0.0 0.0 0.00 0.00 0.00 69 1014.3
20260905110108 62 275 0.0 0.0 0.00 0.00 0.00 69 1014.2
20260905104555 62 275 0.0 0.0 0.00 0.00 0.00 69 1014.1
20260905103054 62 275 0.0 0.0 0.00 0.00 0.00 69 1014.1
20260905101603 63 275 0.0 0.0 0.00 0.00 0.00 68 1013.9
20260905100051 63 275 0.0 0.0 0.00 0.00 0.00 68 1013.8
20260905094550 63 275 0.0 0.0 0.00 0.00 0.00 68 1013.6
20260905093049 63 275 0.0 0.0 0.00 0.00 0.00 68 1013.5
20260905091600 63 275 0.0 0.0 0.00 0.00 0.00 68 1013.6
20260905090046 63 275 0.0 0.0 0.00 0.00 0.00 68 1013.7
20260905084544 63 275 0.0 0.0 0.00 0.00 0.00 67 1013.9